TimeEDT,TemperatureF,Dew PointF,Humidity,Sea Level PressureIn,VisibilityMPH,Wind Direction,Wind SpeedMPH,Gust SpeedMPH,PrecipitationIn,Events,Conditions,WindDirDegrees,DateUTC
12:15 AM,32.0,24.8,75,30.03,10.0,NW,3.5,-,N/A,,Overcast,310,2013-03-17 04:15:00
12:35 AM,30.2,24.8,80,30.04,10.0,West,4.6,-,N/A,,Overcast,280,2013-03-17 04:35:00
12:55 AM,30.2,26.6,86,30.04,10.0,Calm,Calm,-,N/A,,Overcast,0,2013-03-17 04:55:00
1:15 AM,30.2,26.6,86,30.04,10.0,WSW,3.5,-,N/A,,Overcast,240,2013-03-17 05:15:00
1:35 AM,30.2,26.6,86,30.04,10.0,WSW,4.6,-,N/A,,Overcast,240,2013-03-17 05:35:00
1:55 AM,30.2,26.6,86,30.03,10.0,SW,3.5,-,N/A,,Overcast,220,2013-03-17 05:55:00
2:15 AM,30.2,26.6,86,30.04,10.0,SW,3.5,-,N/A,,Overcast,230,2013-03-17 06:15:00
2:35 AM,30.2,26.6,86,30.05,10.0,WSW,3.5,-,N/A,,Overcast,250,2013-03-17 06:35:00
2:55 AM,30.2,26.6,86,30.06,10.0,West,3.5,-,N/A,,Overcast,260,2013-03-17 06:55:00
3:15 AM,30.2,26.6,86,30.06,10.0,WNW,6.9,-,N/A,,Overcast,290,2013-03-17 07:15:00
3:36 AM,30.2,24.8,80,30.07,10.0,WNW,9.2,-,N/A,,Overcast,300,2013-03-17 07:36:00
3:56 AM,30.2,24.8,80,30.07,10.0,NW,11.5,19.6,N/A,,Overcast,310,2013-03-17 07:56:00
4:16 AM,28.4,21.2,74,30.08,10.0,NW,13.8,21.9,N/A,,Scattered Clouds,310,2013-03-17 08:16:00
4:36 AM,28.4,21.2,74,30.08,10.0,NW,10.4,-,N/A,,Clear,310,2013-03-17 08:36:00
4:56 AM,26.6,19.4,74,30.08,10.0,NW,13.8,17.3,N/A,,Clear,310,2013-03-17 08:56:00
5:16 AM,26.6,19.4,74,30.09,10.0,NW,8.1,-,N/A,,Clear,320,2013-03-17 09:16:00
5:36 AM,26.6,19.4,74,30.09,10.0,NNW,8.1,-,N/A,,Clear,330,2013-03-17 09:36:00
5:51 AM,26.6,19.4,74,30.10,10.0,NW,4.6,-,N/A,,Clear,310,2013-03-17 09:51:00
6:11 AM,24.8,19.4,80,30.11,10.0,NW,4.6,-,N/A,,Clear,310,2013-03-17 10:11:00
6:31 AM,24.8,19.4,80,30.11,10.0,NW,3.5,-,N/A,,Clear,310,2013-03-17 10:31:00
6:52 AM,24.8,17.6,74,30.12,10.0,NNW,3.5,-,N/A,,Clear,330,2013-03-17 10:52:00
7:12 AM,23.0,17.6,80,30.13,10.0,Calm,Calm,-,N/A,,Clear,0,2013-03-17 11:12:00
7:32 AM,23.0,19.4,86,30.14,10.0,Calm,Calm,-,N/A,,Clear,0,2013-03-17 11:32:00
7:52 AM,23.0,19.4,86,30.15,10.0,Calm,Calm,-,N/A,,Clear,0,2013-03-17 11:52:00
8:12 AM,23.0,19.4,86,30.17,10.0,Calm,Calm,-,N/A,,Clear,0,2013-03-17 12:12:00
8:32 AM,23.0,19.4,86,30.17,10.0,NNW,5.8,-,N/A,,Clear,330,2013-03-17 12:32:00
9:12 AM,26.6,19.4,74,30.20,10.0,North,6.9,-,N/A,,Clear,350,2013-03-17 13:12:00
9:32 AM,26.6,19.4,74,30.20,10.0,North,8.1,-,N/A,,Clear,360,2013-03-17 13:32:00
9:53 AM,26.6,19.4,74,30.21,10.0,North,8.1,-,N/A,,Clear,360,2013-03-17 13:53:00
10:13 AM,28.4,19.4,69,30.22,10.0,North,9.2,18.4,N/A,,Clear,10,2013-03-17 14:13:00
10:33 AM,28.4,17.6,64,30.22,10.0,NNE,8.1,-,N/A,,Clear,30,2013-03-17 14:33:00
10:53 AM,28.4,14.0,55,30.22,10.0,NNE,11.5,-,N/A,,Clear,20,2013-03-17 14:53:00
11:13 AM,28.4,14.0,55,30.23,10.0,NNE,8.1,-,N/A,,Clear,30,2013-03-17 15:13:00
11:33 AM,28.4,14.0,55,30.23,10.0,NE,10.4,16.1,N/A,,Clear,50,2013-03-17 15:33:00
11:53 AM,28.4,14.0,55,30.23,10.0,NE,8.1,-,N/A,,Clear,40,2013-03-17 15:53:00
12:13 PM,28.4,12.2,51,30.23,10.0,NNE,10.4,16.1,N/A,,Clear,20,2013-03-17 16:13:00
12:33 PM,28.4,14.0,55,30.24,10.0,NNE,9.2,-,N/A,,Clear,30,2013-03-17 16:33:00
12:53 PM,30.2,12.2,47,30.24,10.0,NE,10.4,17.3,N/A,,Clear,40,2013-03-17 16:53:00
1:14 PM,30.2,14.0,51,30.24,10.0,ENE,9.2,-,N/A,,Clear,70,2013-03-17 17:14:00
1:34 PM,30.2,14.0,51,30.23,10.0,ENE,11.5,-,N/A,,Clear,60,2013-03-17 17:34:00
1:54 PM,30.2,15.8,55,30.22,10.0,NE,6.9,-,N/A,,Clear,40,2013-03-17 17:54:00
2:14 PM,32.0,15.8,51,30.23,10.0,ENE,10.4,-,N/A,,Clear,60,2013-03-17 18:14:00
2:34 PM,32.0,17.6,55,30.22,10.0,NE,8.1,-,N/A,,Clear,40,2013-03-17 18:34:00
2:54 PM,32.0,19.4,60,30.22,10.0,ENE,9.2,-,N/A,,Clear,60,2013-03-17 18:54:00
3:14 PM,32.0,19.4,60,30.22,10.0,ENE,10.4,-,N/A,,Clear,70,2013-03-17 19:14:00
3:34 PM,32.0,19.4,60,30.22,10.0,ENE,9.2,-,N/A,,Scattered Clouds,70,2013-03-17 19:34:00
3:54 PM,32.0,19.4,60,30.22,10.0,ENE,9.2,-,N/A,,Clear,70,2013-03-17 19:54:00
4:15 PM,32.0,21.2,64,30.21,10.0,East,6.9,-,N/A,,Scattered Clouds,90,2013-03-17 20:15:00
4:35 PM,32.0,21.2,64,30.21,10.0,East,9.2,-,N/A,,Mostly Cloudy,80,2013-03-17 20:35:00
4:55 PM,32.0,21.2,64,30.21,10.0,East,10.4,-,N/A,,Overcast,90,2013-03-17 20:55:00
5:15 PM,32.0,21.2,64,30.20,10.0,ENE,11.5,17.3,N/A,,Overcast,70,2013-03-17 21:15:00
5:35 PM,30.2,21.2,69,30.21,10.0,East,9.2,-,N/A,,Overcast,100,2013-03-17 21:35:00
5:55 PM,30.2,19.4,64,30.20,10.0,East,11.5,-,N/A,,Overcast,90,2013-03-17 21:55:00
6:15 PM,30.2,19.4,64,30.20,10.0,East,11.5,-,N/A,,Overcast,90,2013-03-17 22:15:00
6:35 PM,30.2,19.4,64,30.20,10.0,East,9.2,-,N/A,,Overcast,90,2013-03-17 22:35:00
6:55 PM,30.2,19.4,64,30.20,10.0,East,11.5,-,N/A,,Overcast,90,2013-03-17 22:55:00
7:16 PM,30.2,19.4,64,30.20,10.0,East,11.5,-,N/A,,Overcast,80,2013-03-17 23:16:00
7:36 PM,30.2,19.4,64,30.20,10.0,East,10.4,-,N/A,,Overcast,80,2013-03-17 23:36:00
7:56 PM,30.2,19.4,64,30.21,10.0,East,6.9,-,N/A,,Overcast,80,2013-03-17 23:56:00
8:16 PM,30.2,19.4,64,30.22,10.0,ENE,9.2,-,N/A,,Overcast,60,2013-03-18 00:16:00
8:36 PM,30.2,19.4,64,30.22,10.0,ENE,9.2,-,N/A,,Overcast,60,2013-03-18 00:36:00
8:56 PM,30.2,19.4,64,30.22,10.0,ENE,8.1,-,N/A,,Overcast,70,2013-03-18 00:56:00
9:11 PM,28.4,19.4,69,30.22,10.0,East,12.7,-,N/A,,Overcast,90,2013-03-18 01:11:00
9:31 PM,28.4,21.2,74,30.22,10.0,ENE,9.2,-,N/A,,Mostly Cloudy,60,2013-03-18 01:31:00
9:51 PM,28.4,21.2,74,30.21,10.0,NE,6.9,-,N/A,,Scattered Clouds,50,2013-03-18 01:51:00
10:12 PM,28.4,21.2,74,30.21,10.0,ENE,8.1,-,N/A,,Clear,60,2013-03-18 02:12:00
10:32 PM,26.6,21.2,80,30.20,10.0,ENE,10.4,-,N/A,,Clear,60,2013-03-18 02:32:00
10:52 PM,26.6,21.2,80,30.19,10.0,ENE,10.4,-,N/A,,Clear,60,2013-03-18 02:52:00
11:12 PM,26.6,21.2,80,30.18,10.0,ENE,9.2,-,N/A,,Clear,60,2013-03-18 03:12:00
11:32 PM,26.6,21.2,80,30.16,10.0,ENE,10.4,-,N/A,,Clear,60,2013-03-18 03:32:00
11:52 PM,26.6,21.2,80,30.16,10.0,ENE,9.2,-,N/A,,Clear,70,2013-03-18 03:52:00